カタログに戻る

STARLINK-2732

運用中通信VLEO
NORAD 48646·PAYLOAD·🇺🇸 United States

打ち上げ May 26, 2021 から Cape Canaveral Space Force Station

Loading…

次のパス (今後24時間)

TLE

最新Source: CelesTrak SupGP

元期: Sep 14, 2026, 20:22 UTC

1 48646C 21044J   26257.84909722 -.00025498  00000+0 -81958-3 0  2572
2 48646  53.1581 313.5807 0001044  86.3081 322.1175 15.31728801    13

AllMySatでSTARLINK-2732をリアルタイム追跡

Download on the App Store